Location: Zagreb
(45.8000°N, 16.0000°E)
Time: 01:15:15
(UTC+01:00)

SR - Pass Details

Date: 15 August 2020
Orbit: 576 x 879 km, 66.7° (Epoch: 15 January)

Event Time Altitude Azimuth Distance (km) Brightness Sun altitude
Rises 21:39:06 0° 221° (SW) 2,941 ? -15.2°
Reaches altitude 10° 21:41:28 10° 225° (SW) 1,994 ? -15.5°
Maximum altitude 21:45:52 60° 306° (NW) 687 ? -16.1°
Drops below altitude 10° 21:50:05 10° 27° (NNE) 1,907 ? -16.7°
Sets 21:52:18 0° 31° (NNE) 2,800 ? -17.0°
